Home   Weather   Matthews   Past weeks
Flag for USA

Past Weather in Matthews, USA — Yesterday and Last 2 Weeks

Now
68 °F

Clear.


Feels Like: 68 °F
Forecast: 73 / 54 °F
Wind: No wind

Location: Charlotte / Douglas International Airport

Current Time: Oct 20, 2019 at 8:36:00 pm

Latest Report: Oct 20, 2019 at 7:52 pm


Visibility: 10 mi

Pressure: 29.90 "Hg

Humidity: 70%

Dew Point: 58 °F

Location of MatthewsLocation

Past Weather in Matthews — Graph

°F

Matthews Temperature Yesterday

Maximum temperature yesterday: 61 °F (at 12:52 pm)
Minimum temperature yesterday: 44 °F (at 5:52 am)
Average temperature yesterday: 55 °F

High & Low Weather Summary for the Past Weeks

 TemperatureHumidityPressure
High85 °F (Oct 12, 3:52 pm)97% (Oct 14, 7:34 am)30.29 "Hg (Oct 14, 7:34 am)
Low40 °F (Oct 18, 7:52 am)25% (Oct 14, 4:52 pm)29.67 "Hg (Oct 16, 2:52 pm)
Average64 °F68%30.03 "Hg
* Reported Oct 5 6:52 pm — Oct 20 6:52 pm, Matthews. Weather by CustomWeather, © 2019

Note: Actual official high and low records may vary slightly from our data, if they occured in-between our weather recording intervals... More about our weather records

Advertising

Matthews Weather History for the Previous 24 Hours

Scroll right to see more
 ConditionsComfort  
Time TempWeatherWind HumidityBarometerVisibility
6:52 pm
Sun, Oct 20
73 °FPassing clouds.5 mph59%29.88 "Hg10 mi
5:52 pm76 °FPassing clouds.3 mph54%29.85 "Hg10 mi
4:52 pm77 °FPassing clouds.5 mph50%29.84 "Hg10 mi
3:52 pm76 °FPassing clouds.6 mph54%29.83 "Hg10 mi
2:52 pm74 °FPassing clouds.10 mph56%29.82 "Hg10 mi
1:52 pm71 °FScattered clouds.10 mph59%29.83 "Hg10 mi
1:40 pm70 °FScattered clouds.9 mph64%29.84 "Hg10 mi
12:52 pm66 °FOvercast.7 mph70%29.84 "Hg10 mi
12:12 pm64 °FPartly sunny.10 mph75%29.85 "Hg10 mi
11:52 am63 °FPartly sunny.7 mph78%29.84 "Hg10 mi
10:52 am61 °FOvercast.15 mph81%29.80 "Hg10 mi
9:52 am59 °FPartly sunny.12 mph84%29.80 "Hg10 mi
9:44 am58 °FPartly sunny.9 mph87%29.80 "Hg10 mi
9:35 am58 °FLow clouds.10 mph87%29.79 "Hg10 mi
8:52 am56 °FFog.10 mph90%29.76 "Hg4 mi
7:52 am56 °FFog.10 mph90%29.73 "Hg5 mi
6:52 am55 °FFog.20 mph90%29.71 "Hg5 mi
5:52 am55 °FFog.14 mph90%29.70 "Hg5 mi
4:52 am55 °FLight rain. Fog.14 mph93%29.70 "Hg3 mi
3:52 am55 °FLight rain. Fog.16 mph93%29.70 "Hg3 mi
2:52 am55 °FRain. Fog.13 mph93%29.73 "Hg2 mi
1:52 am56 °FLight rain. Fog.12 mph90%29.76 "Hg2 mi
12:52 am56 °FLight rain. Fog.5 mph93%29.78 "Hg2 mi
12:36 am56 °FRain. Fog.9 mph90%29.79 "Hg2 mi
11:52 pm
Sat, Oct 19
56 °FHeavy rain. Fog.16 mph90%29.79 "Hg2 mi
10:52 pm56 °FRain. Fog.10 mph90%29.86 "Hg2 mi
9:52 pm55 °FRain. Fog.12 mph90%29.88 "Hg4 mi
9:40 pm55 °FRain. Fog.12 mph90%29.90 "Hg3 mi
8:52 pm54 °FRain. Fog.10 mph90%29.91 "Hg3 mi
Weather by CustomWeather, © 2019

See weather overview